2023/02/02 00:00:00,77.8, 1.0
2023/02/02 00:10:00,77.7, 1.1
2023/02/02 00:20:00,77.9, 1.2
2023/02/02 00:30:00,78.2, 1.1
2023/02/02 00:40:00,78.3, 1.1
2023/02/02 00:50:00,78.2, 1.1
2023/02/02 01:00:00,78.3, 0.9
2023/02/02 01:10:00,78.3, 1.2
2023/02/02 01:20:00,78.1, 1.0
2023/02/02 01:30:00,77.9, 1.1
2023/02/02 01:40:00,77.8, 1.2
2023/02/02 01:50:00,77.8, 1.1
2023/02/02 02:00:00,77.9, 1.1
2023/02/02 02:10:00,78.0, 1.0
2023/02/02 02:20:00,78.1, 1.2
2023/02/02 02:30:00,78.1, 1.2
2023/02/02 02:40:00,78.0, 1.2
2023/02/02 02:50:00,77.8, 1.1
2023/02/02 03:00:00,77.8, 1.1
2023/02/02 03:10:00,77.7, 1.0
2023/02/02 03:20:00,77.6, 1.1
2023/02/02 03:30:00,77.5, 1.0
2023/02/02 03:40:00,77.4, 1.0
2023/02/02 03:50:00,77.3, 1.0
2023/02/02 04:00:00,77.4, 1.1
2023/02/02 04:10:00,77.5, 0.9
2023/02/02 04:20:00,77.7, 1.0
2023/02/02 04:30:00,77.6, 1.1
2023/02/02 04:40:00,77.5, 0.9
2023/02/02 04:50:00,77.5, 1.0
2023/02/02 05:00:00,77.6, 0.9
2023/02/02 05:10:00,77.6, 0.9
2023/02/02 05:20:00,77.5, 1.1
2023/02/02 05:30:00,77.4, 0.9
2023/02/02 05:40:00,77.4, 0.8
2023/02/02 05:50:00,77.4, 1.0
2023/02/02 06:00:00,77.4, 1.1
2023/02/02 06:10:00,77.4, 1.0
2023/02/02 06:20:00,77.4, 1.0
2023/02/02 06:30:00,77.5, 0.9
2023/02/02 06:40:00,77.6, 1.0
2023/02/02 06:50:00,77.6, 0.9
2023/02/02 07:00:00,77.5, 0.6
2023/02/02 07:10:00,77.4, 0.9
2023/02/02 07:20:00,77.4, 0.7
2023/02/02 07:30:00,77.3, 0.9
2023/02/02 07:40:00,77.3, 1.0
2023/02/02 07:50:00,77.2, 1.0
2023/02/02 08:00:00,77.2, 1.1
2023/02/02 08:10:00,77.2, 1.2
2023/02/02 08:20:00,77.1, 1.1
2023/02/02 08:30:00,77.1, 1.4
2023/02/02 08:40:00,77.1, 2.0
2023/02/02 08:50:00,77.1, 2.7
2023/02/02 09:00:00,77.0, 2.2
2023/02/02 09:10:00,77.0, 2.4
2023/02/02 09:20:00,76.9, 2.4
2023/02/02 09:30:00,76.8, 2.9
2023/02/02 09:40:00,76.7, 3.0
2023/02/02 09:50:00,76.7, 3.7
2023/02/02 10:00:00,76.7, 4.2
2023/02/02 10:10:00,76.6, 4.2
2023/02/02 10:20:00,76.6, 5.0
2023/02/02 10:30:00,76.6, 4.7
2023/02/02 10:40:00,76.5, 5.2
2023/02/02 10:50:00,76.5, 5.2
2023/02/02 11:00:00,76.5, 5.1
2023/02/02 11:10:00,76.5, 5.7
2023/02/02 11:20:00,76.2, 4.7
2023/02/02 11:30:00,75.9, 4.5
2023/02/02 11:40:00,75.7, 4.5
2023/02/02 11:50:00,75.6, 4.8
2023/02/02 12:00:00,75.3, 4.8
2023/02/02 12:10:00,75.4, 6.2
2023/02/02 12:20:00,75.2, 5.6
2023/02/02 12:30:00,75.1, 6.4
2023/02/02 12:40:00,74.9, 6.0
2023/02/02 12:50:00,74.9, 7.5
2023/02/02 13:00:00,74.8, 8.4
2023/02/02 13:10:00,74.6, 7.3
2023/02/02 13:20:00,74.3, 5.9
2023/02/02 13:30:00,74.1, 5.3
2023/02/02 13:40:00,73.9, 4.4
2023/02/02 13:50:00,73.8, 4.1
2023/02/02 14:00:00,73.8, 4.1
2023/02/02 14:10:00,73.9, 5.4
2023/02/02 14:20:00,73.9, 5.9
2023/02/02 14:30:00,73.8, 5.9
2023/02/02 14:40:00,73.6, 6.2
2023/02/02 14:50:00,73.5, 6.1
2023/02/02 15:00:00,73.2, 4.0
2023/02/02 15:10:00,73.1, 3.8
2023/02/02 15:20:00,73.0, 3.8
2023/02/02 15:30:00,73.0, 4.0
2023/02/02 15:40:00,72.8, 3.7
2023/02/02 15:50:00,72.7, 3.4
2023/02/02 16:00:00,72.7, 2.9
2023/02/02 16:10:00,72.6, 2.5
2023/02/02 16:20:00,72.5, 2.5
2023/02/02 16:30:00,72.3, 2.5
2023/02/02 16:40:00,72.3, 2.4
2023/02/02 16:50:00,72.2, 2.4
2023/02/02 17:00:00,72.1, 2.3
2023/02/02 17:10:00,72.0, 2.1
2023/02/02 17:20:00,71.9, 1.7
2023/02/02 17:30:00,71.8, 1.6
2023/02/02 17:40:00,71.7, 1.5
2023/02/02 17:50:00,71.7, 1.4
2023/02/02 18:00:00,71.6, 1.3
2023/02/02 18:10:00,71.6, 1.2
2023/02/02 18:20:00,71.6, 1.0
2023/02/02 18:30:00,71.5, 1.0
2023/02/02 18:40:00,71.5, 1.2
2023/02/02 18:50:00,71.4, 1.1
2023/02/02 19:00:00,71.4, 1.1
2023/02/02 19:10:00,71.4, 1.1
2023/02/02 19:20:00,71.3, 1.1
2023/02/02 19:30:00,71.2, 1.2
2023/02/02 19:40:00,71.2, 1.1
2023/02/02 19:50:00,71.1, 1.0
2023/02/02 20:00:00,71.1, 1.1
2023/02/02 20:10:00,71.2, 0.8
2023/02/02 20:20:00,71.1, 0.8
2023/02/02 20:30:00,71.0, 0.9
2023/02/02 20:40:00,71.0, 0.9
2023/02/02 20:50:00,71.0, 0.9
2023/02/02 21:00:00,71.0, 0.9
2023/02/02 21:10:00,71.0, 1.0
2023/02/02 21:20:00,71.0, 0.8
2023/02/02 21:30:00,71.0, 0.9
2023/02/02 21:40:00,70.9, 1.0
2023/02/02 21:50:00,70.8, 0.8
2023/02/02 22:00:00,70.8, 0.9
2023/02/02 22:10:00,70.7, 0.8
2023/02/02 22:20:00,70.7, 1.0
2023/02/02 22:30:00,70.7, 1.0
2023/02/02 22:40:00,70.6, 0.8
2023/02/02 22:50:00,70.6, 0.9
2023/02/02 23:00:00,70.5, 0.9
2023/02/02 23:10:00,70.5, 0.8
2023/02/02 23:20:00,70.5, 1.0
2023/02/02 23:30:00,70.5, 1.0
2023/02/02 23:40:00,70.5, 0.9
2023/02/02 23:50:00,70.4, 0.9
